アサシン彗星

C/2018 N2 ( ASASSN )

English version
Home page
Updated on March 28, 2019

---------------------------------------------------------------------

・ プロフィール

発見日 2018年7月7日
発見光度 16.4等
発見者 All-Sky Automated Survey for Supernovae (ASASSN) program

・ 写真集

・ 軌道要素

Epoch 2019 Nov. 13.0 TT = JDT 2458800.5
T 2019 Nov. 11.00989 TT                                 MPCW
q   3.1249348            (2000.0)            P               Q
z  +0.0000216      Peri.   24.39404     +0.78557371     -0.45743487
 +/-0.0000501      Node    25.26171     +0.27017177     -0.35225852
e   0.9999326      Incl.   77.52994     +0.55666970     +0.81649695
From 115 observations 2018 July 11-Oct. 11, mean residual 0".5.

・ 星図

・ 光度変化

        m1 = 4.0 + 5 logΔ + 10.0 log r

---------------------------------------------------------------------

軌道要素はM.P.E.C. 2018-U70に掲載されたものです。
星図はステラナビゲータ Ver.10 (アストロアーツ) で作成したものです。
光度グラフはComet for Windowsで作成したものです。

---------------------------------------------------------------------

Copyright(C) Seiichi Yoshida (comet@aerith.net). All rights reserved.